Weather in Mao

Chad     14°07′04″N   15°18′38″E
temp.,
°C
wind,
m/s
gust,
m/s
humid.,
%
clouds,
%
prec.,
mm/h
press.,
hPa
HPBL,
m
18 april, sun
sun1801:00+28ne511827 0.0 1006147
04:00+27ne59872 0.0 1006115
07:00+28ene5138100 0.0 1008303
10:00+38e91155 0.0 10081090
13:00+42e654100 0.0 10053165
16:00+42ene33432 0.0 10034568
19:00+34ne446100 0.0 100526
22:00+31nw447100 0.0 100730
19 april, mon
mon1901:00+28nne23999 0.0 100611
04:00+28nne44883 0.0 100626
07:00+29ne49613 0.0 1007165
10:00+40ene67321 0.0 1007961
13:00+43e43393 0.0 10044427
16:00+42e333100 0.0 10024763
19:00+33sw44698 0.0 100427
22:00+31nnw449100 0.0 100642
20 april, tue
tue2001:00+30n4410100 0.0 100432
04:00+29nne44763 0.0 100524
07:00+30ene47622 0.0 1006126
10:00+40e6730 0.0 1006948
13:00+43e5330 0.0 10034714
16:00+43e4335 0.0 10015214
19:00+33w3470 0.0 100322
22:00+31nw4480 0.0 100536
21 april, wed
wed2101:00+29n4680 0.0 100556
04:00+28nne5570 0.0 100551
07:00+28ne51160 0.0 1007244
10:00+38ene81055 0.0 1007916
13:00+43ene5330 0.0 10043426
16:00+43nne3233 0.0 10014770
19:00+34wnw4570 0.0 100342
22:00+31nw4480 0.0 100542
22 april, thu
thu2201:00+29nw4480 0.0 100438
04:00+27nnw33100 0.0 100515
07:00+30nne4680 0.0 1006108
10:00+40e5650 0.0 1006986
13:00+42ssw7650 0.0 10043231
16:00+42sw6450 0.0 10022006
19:00+33sw44810 0.0 100340
22:00+31wnw3310100 0.0 100515